#Datum;Uhrzeit;WR;Pac;DaySum;Status;WR;Pac;DaySum;Status;Pdc1;Udc;Temp;WR;Pac;DaySum;Status;Pdc1;Udc;Temp;WR;Pac;DaySum;Status;Pdc1;Udc;Temp;WR;Pac;DaySum;Status;Pdc1;Pdc2;Udc1;Udc2;Temp;WR;Pac;DaySum;Status;Pdc1;Pdc2;Udc1;Udc2;Temp;WR;Pac;DaySum;Status;Pdc1;Udc;Temp;WR;Pac;DaySum;Status;Pdc1;Udc;Temp;WR;Pac;DaySum;Status;Pdc1;Udc;Temp
27.01.18;23:55:00;1;285;12381;0;2;0;1490;0;0;0;0;3;0;847;0;0;0;0;4;0;1133;0;0;0;0;5;0;3451;0;0;0;0;0;0;6;0;2416;0;0;0;0;0;0;7;0;1393;0;0;0;0;8;0;1421;0;0;0;0;9;0;712;0;0;0;0
27.01.18;23:50:00;1;325;12357;0;2;0;1490;0;0;0;0;3;0;847;0;0;0;0;4;0;1133;0;0;0;0;5;0;3451;0;0;0;0;0;0;6;0;2416;0;0;0;0;0;0;7;0;1393;0;0;0;0;8;0;1421;0;0;0;0;9;0;712;0;0;0;0
27.01.18;23:45:00;1;486;12312;0;2;0;1490;0;0;0;0;3;0;847;0;0;0;0;4;0;1133;0;0;0;0;5;0;3451;0;0;0;0;0;0;6;0;2416;0;0;0;0;0;0;7;0;1393;0;0;0;0;8;0;1421;0;0;0;0;9;0;712;0;0;0;0
27.01.18;23:40:00;1;185;12283;0;2;0;1490;0;0;0;0;3;0;847;0;0;0;0;4;0;1133;0;0;0;0;5;0;3451;0;0;0;0;0;0;6;0;2416;0;0;0;0;0;0;7;0;1393;0;0;0;0;8;0;1421;0;0;0;0;9;0;712;0;0;0;0
27.01.18;23:35:00;1;186;12267;0;2;0;1490;0;0;0;0;3;0;847;0;0;0;0;4;0;1133;0;0;0;0;5;0;3451;0;0;0;0;0;0;6;0;2416;0;0;0;0;0;0;7;0;1393;0;0;0;0;8;0;1421;0;0;0;0;9;0;712;0;0;0;0
27.01.18;23:30:00;1;185;12252;0;2;0;1490;0;0;0;0;3;0;847;0;0;0;0;4;0;1133;0;0;0;0;5;0;3451;0;0;0;0;0;0;6;0;2416;0;0;0;0;0;0;7;0;1393;0;0;0;0;8;0;1421;0;0;0;0;9;0;712;0;0;0;0
27.01.18;23:25:00;1;185;12236;0;2;0;1490;0;0;0;0;3;0;847;0;0;0;0;4;0;1133;0;0;0;0;5;0;3451;0;0;0;0;0;0;6;0;2416;0;0;0;0;0;0;7;0;1393;0;0;0;0;8;0;1421;0;0;0;0;9;0;712;0;0;0;0
27.01.18;23:20:00;1;556;12221;0;2;0;1490;0;0;0;0;3;0;847;0;0;0;0;4;0;1133;0;0;0;0;5;0;3451;0;0;0;0;0;0;6;0;2416;0;0;0;0;0;0;7;0;1393;0;0;0;0;8;0;1421;0;0;0;0;9;0;712;0;0;0;0
27.01.18;23:15:00;1;184;12176;0;2;0;1490;0;0;0;0;3;0;847;0;0;0;0;4;0;1133;0;0;0;0;5;0;3451;0;0;0;0;0;0;6;0;2416;0;0;0;0;0;0;7;0;1393;0;0;0;0;8;0;1421;0;0;0;0;9;0;712;0;0;0;0
27.01.18;23:10:00;1;184;12161;0;2;0;1490;0;0;0;0;3;0;847;0;0;0;0;4;0;1133;0;0;0;0;5;0;3451;0;0;0;0;0;0;6;0;2416;0;0;0;0;0;0;7;0;1393;0;0;0;0;8;0;1421;0;0;0;0;9;0;712;0;0;0;0
27.01.18;23:05:00;1;193;12145;0;2;0;1490;0;0;0;0;3;0;847;0;0;0;0;4;0;1133;0;0;0;0;5;0;3451;0;0;0;0;0;0;6;0;2416;0;0;0;0;0;0;7;0;1393;0;0;0;0;8;0;1421;0;0;0;0;9;0;712;0;0;0;0
27.01.18;23:00:00;1;225;12129;0;2;0;1490;0;0;0;0;3;0;847;0;0;0;0;4;0;1133;0;0;0;0;5;0;3451;0;0;0;0;0;0;6;0;2416;0;0;0;0;0;0;7;0;1393;0;0;0;0;8;0;1421;0;0;0;0;9;0;712;0;0;0;0
27.01.18;22:55:00;1;226;12110;0;2;0;1490;0;0;0;0;3;0;847;0;0;0;0;4;0;1133;0;0;0;0;5;0;3451;2;0;0;0;0;0;6;0;2416;2;0;0;0;0;0;7;0;1393;0;0;0;0;8;0;1421;0;0;0;0;9;0;712;0;0;0;0
27.01.18;22:50:00;1;556;12086;0;2;0;1490;0;0;0;0;3;0;847;0;0;0;0;4;0;1133;0;0;0;0;5;0;3451;2;0;0;0;0;0;6;0;2416;2;0;0;0;0;0;7;0;1393;0;0;0;0;8;0;1421;0;0;0;0;9;0;712;0;0;0;0
27.01.18;22:45:00;1;185;12045;0;2;0;1490;0;0;0;0;3;0;847;0;0;0;0;4;0;1133;0;0;0;0;5;0;3451;2;0;0;0;0;0;6;0;2416;2;0;0;0;0;0;7;0;1393;0;0;0;0;8;0;1421;0;0;0;0;9;0;712;0;0;0;0
27.01.18;22:40:00;1;185;12030;0;2;0;1490;0;0;0;0;3;0;847;0;0;0;0;4;0;1133;0;0;0;0;5;0;3451;2;0;0;0;0;0;6;0;2416;2;0;0;0;0;0;7;0;1393;0;0;0;0;8;0;1421;0;0;0;0;9;0;712;0;0;0;0
27.01.18;22:35:00;1;185;12014;0;2;0;1490;0;0;0;0;3;0;847;0;0;0;0;4;0;1133;0;0;0;0;5;0;3451;2;0;0;0;0;0;6;0;2416;2;0;0;0;0;0;7;0;1393;0;0;0;0;8;0;1421;0;0;0;0;9;0;712;0;0;0;0
27.01.18;22:30:00;1;184;11999;0;2;0;1490;0;0;0;0;3;0;847;0;0;0;0;4;0;1133;0;0;0;0;5;0;3451;2;0;0;0;0;0;6;0;2416;2;0;0;0;0;0;7;0;1393;0;0;0;0;8;0;1421;0;0;0;0;9;0;712;0;0;0;0
27.01.18;22:25:00;1;325;11983;0;2;0;1490;0;0;0;0;3;0;847;0;0;0;0;4;0;1133;0;0;0;0;5;0;3451;2;0;0;0;0;0;6;0;2416;2;0;0;0;0;0;7;0;1393;0;0;0;0;8;0;1421;0;0;0;0;9;0;712;0;0;0;0
27.01.18;22:20:00;1;606;11943;0;2;0;1490;0;0;0;0;3;0;847;0;0;0;0;4;0;1133;0;0;0;0;5;0;3451;2;0;0;0;0;0;6;0;2416;2;0;0;0;0;0;7;0;1393;0;0;0;0;8;0;1421;0;0;0;0;9;0;712;0;0;0;0
27.01.18;22:15:00;1;252;11916;0;2;0;1490;0;0;0;0;3;0;847;0;0;0;0;4;0;1133;0;0;0;0;5;0;3451;2;0;0;0;0;0;6;0;2416;2;0;0;0;0;0;7;0;1393;0;0;0;0;8;0;1421;0;0;0;0;9;0;712;0;0;0;0
27.01.18;22:10:00;1;278;11895;0;2;0;1490;0;0;0;0;3;0;847;0;0;0;0;4;0;1133;0;0;0;0;5;0;3451;2;0;0;0;0;0;6;0;2416;2;0;0;0;0;0;7;0;1393;0;0;0;0;8;0;1421;0;0;0;0;9;0;712;0;0;0;0
27.01.18;22:05:00;1;298;11871;0;2;0;1490;0;0;0;0;3;0;847;0;0;0;0;4;0;1133;0;0;0;0;5;0;3451;2;0;0;0;0;0;6;0;2416;2;0;0;0;0;0;7;0;1393;0;0;0;0;8;0;1421;0;0;0;0;9;0;712;0;0;0;0
27.01.18;22:00:00;1;298;11847;0;2;0;1490;0;0;0;0;3;0;847;0;0;0;0;4;0;1133;0;0;0;0;5;0;3451;2;0;0;0;0;0;6;0;2416;2;0;0;0;0;0;7;0;1393;0;0;0;0;8;0;1421;0;0;0;0;9;0;712;0;0;0;0
27.01.18;21:55:00;1;548;11822;0;2;0;1490;0;0;0;0;3;0;847;0;0;0;0;4;0;1133;0;0;0;0;5;0;3451;2;0;0;0;0;0;6;0;2416;2;0;0;0;0;0;7;0;1393;0;0;0;0;8;0;1421;0;0;0;0;9;0;712;0;0;0;0
27.01.18;21:50:00;1;211;11770;0;2;0;1490;0;0;0;0;3;0;847;0;0;0;0;4;0;1133;0;0;0;0;5;0;3451;2;0;0;0;0;0;6;0;2416;2;0;0;0;0;0;7;0;1393;0;0;0;0;8;0;1421;0;0;0;0;9;0;712;0;0;0;0
27.01.18;21:45:00;1;187;11753;0;2;0;1490;0;0;0;0;3;0;847;0;0;0;0;4;0;1133;0;0;0;0;5;0;3451;2;0;0;0;0;0;6;0;2416;2;0;0;0;0;0;7;0;1393;0;0;0;0;8;0;1421;0;0;0;0;9;0;712;0;0;0;0
27.01.18;21:40:00;1;187;11737;0;2;0;1490;0;0;0;0;3;0;847;0;0;0;0;4;0;1133;0;0;0;0;5;0;3451;2;0;0;0;0;0;6;0;2416;2;0;0;0;0;0;7;0;1393;0;0;0;0;8;0;1421;0;0;0;0;9;0;712;0;0;0;0
27.01.18;21:35:00;1;187;11722;0;2;0;1490;0;0;0;0;3;0;847;0;0;0;0;4;0;1133;0;0;0;0;5;0;3451;2;0;0;0;0;0;6;0;2416;2;0;0;0;0;0;7;0;1393;0;0;0;0;8;0;1421;0;0;0;0;9;0;712;0;0;0;0
27.01.18;21:30:00;1;186;11706;0;2;0;1490;0;0;0;0;3;0;847;0;0;0;0;4;0;1133;0;0;0;0;5;0;3451;2;0;0;0;0;0;6;0;2416;2;0;0;0;0;0;7;0;1393;0;0;0;0;8;0;1421;0;0;0;0;9;0;712;0;0;0;0
27.01.18;21:25:00;1;197;11690;0;2;0;1490;0;0;0;0;3;0;847;0;0;0;0;4;0;1133;0;0;0;0;5;0;3451;2;0;0;0;0;0;6;0;2416;2;0;0;0;0;0;7;0;1393;0;0;0;0;8;0;1421;0;0;0;0;9;0;712;0;0;0;0
27.01.18;21:20:00;1;477;11669;0;2;0;1490;0;0;0;0;3;0;847;0;0;0;0;4;0;1133;0;0;0;0;5;0;3451;2;0;0;0;0;0;6;0;2416;2;0;0;0;0;0;7;0;1393;0;0;0;0;8;0;1421;0;0;0;0;9;0;712;0;0;0;0
27.01.18;21:15:00;1;229;11625;0;2;0;1490;0;0;0;0;3;0;847;0;0;0;0;4;0;1133;0;0;0;0;5;0;3451;2;0;0;0;0;0;6;0;2416;2;0;0;0;0;0;7;0;1393;0;0;0;0;8;0;1421;0;0;0;0;9;0;712;0;0;0;0
27.01.18;21:10:00;1;229;11606;0;2;0;1490;0;0;0;0;3;0;847;0;0;0;0;4;0;1133;0;0;0;0;5;0;3451;2;0;0;0;0;0;6;0;2416;2;0;0;0;0;0;7;0;1393;0;0;0;0;8;0;1421;0;0;0;0;9;0;712;0;0;0;0
27.01.18;21:05:00;1;225;11587;0;2;0;1490;0;0;0;0;3;0;847;0;0;0;0;4;0;1133;0;0;0;0;5;0;3451;2;0;0;0;0;0;6;0;2416;2;0;0;0;0;0;7;0;1393;0;0;0;0;8;0;1421;0;0;0;0;9;0;712;0;0;0;0
27.01.18;21:00:00;1;186;11568;0;2;0;1490;0;0;0;0;3;0;847;0;0;0;0;4;0;1133;0;0;0;0;5;0;3451;2;0;0;0;0;0;6;0;2416;2;0;0;0;0;0;7;0;1393;0;0;0;0;8;0;1421;0;0;0;0;9;0;712;0;0;0;0
27.01.18;20:55:00;1;185;11553;0;2;0;1490;0;0;0;0;3;0;847;0;0;0;0;4;0;1133;0;0;0;0;5;0;3451;2;0;0;0;0;0;6;0;2416;2;0;0;0;0;0;7;0;1393;0;0;0;0;8;0;1421;0;0;0;0;9;0;712;0;0;0;0
27.01.18;20:50:00;1;862;11537;0;2;0;1490;0;0;0;0;3;0;847;0;0;0;0;4;0;1133;0;0;0;0;5;0;3451;2;0;0;0;0;0;6;0;2416;2;0;0;0;0;0;7;0;1393;0;0;0;0;8;0;1421;0;0;0;0;9;0;712;0;0;0;0
27.01.18;20:45:00;1;185;11492;0;2;0;1490;0;0;0;0;3;0;847;0;0;0;0;4;0;1133;0;0;0;0;5;0;3451;2;0;0;0;0;0;6;0;2416;2;0;0;0;0;0;7;0;1393;0;0;0;0;8;0;1421;0;0;0;0;9;0;712;0;0;0;0
27.01.18;20:40:00;1;186;11476;0;2;0;1490;0;0;0;0;3;0;847;0;0;0;0;4;0;1133;0;0;0;0;5;0;3451;2;0;0;0;0;0;6;0;2416;2;0;0;0;0;0;7;0;1393;0;0;0;0;8;0;1421;0;0;0;0;9;0;712;0;0;0;0
27.01.18;20:35:00;1;270;11461;0;2;0;1490;0;0;0;0;3;0;847;0;0;0;0;4;0;1133;0;0;0;0;5;0;3451;2;0;0;0;0;0;6;0;2416;2;0;0;0;0;0;7;0;1393;0;0;0;0;8;0;1421;0;0;0;0;9;0;712;0;0;0;0
27.01.18;20:30:00;1;326;11439;0;2;0;1490;0;0;0;0;3;0;847;0;0;0;0;4;0;1133;0;0;0;0;5;0;3451;2;0;0;0;0;0;6;0;2416;2;0;0;0;0;0;7;0;1393;0;0;0;0;8;0;1421;0;0;0;0;9;0;712;0;0;0;0
27.01.18;20:25:00;1;475;11411;0;2;0;1490;0;0;0;0;3;0;847;0;0;0;0;4;0;1133;0;0;0;0;5;0;3451;2;0;0;0;0;0;6;0;2416;2;0;0;0;0;0;7;0;1393;0;0;0;0;8;0;1421;0;0;0;0;9;0;712;0;0;0;0
27.01.18;20:20:00;1;707;11371;0;2;0;1490;0;0;0;0;3;0;847;0;0;0;0;4;0;1133;0;0;0;0;5;0;3451;2;0;0;0;0;0;6;0;2416;2;0;0;0;0;0;7;0;1393;0;0;0;0;8;0;1421;0;0;0;0;9;0;712;0;0;0;0
27.01.18;20:15:00;1;707;11305;0;2;0;1490;0;0;0;0;3;0;847;0;0;0;0;4;0;1133;0;0;0;0;5;0;3451;2;0;0;0;0;0;6;0;2416;2;0;0;0;0;0;7;0;1393;0;0;0;0;8;0;1421;0;0;0;0;9;0;712;0;0;0;0
27.01.18;20:10:00;1;474;11257;0;2;0;1490;0;0;0;0;3;0;847;0;0;0;0;4;0;1133;0;0;0;0;5;0;3451;2;0;0;0;0;0;6;0;2416;2;0;0;0;0;0;7;0;1393;0;0;0;0;8;0;1421;0;0;0;0;9;0;712;0;0;0;0
27.01.18;20:05:00;1;458;11217;0;2;0;1490;0;0;0;0;3;0;847;0;0;0;0;4;0;1133;0;0;0;0;5;0;3451;2;0;0;0;0;0;6;0;2416;2;0;0;0;0;0;7;0;1393;0;0;0;0;8;0;1421;0;0;0;0;9;0;712;0;0;0;0
27.01.18;20:00:00;1;486;11179;0;2;0;1490;0;0;0;0;3;0;847;0;0;0;0;4;0;1133;0;0;0;0;5;0;3451;2;0;0;0;0;0;6;0;2416;2;0;0;0;0;0;7;0;1393;0;0;0;0;8;0;1421;0;0;0;0;9;0;712;0;0;0;0
27.01.18;19:55:00;1;394;11141;0;2;0;1490;0;0;0;0;3;0;847;0;0;0;0;4;0;1133;0;0;0;0;5;0;3451;2;0;0;0;0;0;6;0;2416;2;0;0;0;0;0;7;0;1393;0;0;0;0;8;0;1421;0;0;0;0;9;0;712;0;0;0;0
27.01.18;19:50:00;1;391;11108;0;2;0;1490;0;0;0;0;3;0;847;0;0;0;0;4;0;1133;0;0;0;0;5;0;3451;2;0;0;0;0;0;6;0;2416;2;0;0;0;0;0;7;0;1393;0;0;0;0;8;0;1421;0;0;0;0;9;0;712;0;0;0;0
27.01.18;19:45:00;1;593;11075;0;2;0;1490;0;0;0;0;3;0;847;0;0;0;0;4;0;1133;0;0;0;0;5;0;3451;2;0;0;0;0;0;6;0;2416;2;0;0;0;0;0;7;0;1393;0;0;0;0;8;0;1421;0;0;0;0;9;0;712;0;0;0;0
27.01.18;19:40:00;1;391;11013;0;2;0;1490;0;0;0;0;3;0;847;0;0;0;0;4;0;1133;0;0;0;0;5;0;3451;2;0;0;0;0;0;6;0;2416;2;0;0;0;0;0;7;0;1393;0;0;0;0;8;0;1421;0;0;0;0;9;0;712;0;0;0;0
27.01.18;19:35:00;1;389;10980;0;2;0;1490;0;0;0;0;3;0;847;0;0;0;0;4;0;1133;0;0;0;0;5;0;3451;2;0;0;0;0;0;6;0;2416;2;0;0;0;0;0;7;0;1393;0;0;0;0;8;0;1421;0;0;0;0;9;0;712;0;0;0;0
27.01.18;19:30:00;1;426;10948;0;2;0;1490;0;0;0;0;3;0;847;0;0;0;0;4;0;1133;0;0;0;0;5;0;3451;2;0;0;0;0;0;6;0;2416;2;0;0;0;0;0;7;0;1393;0;0;0;0;8;0;1421;0;0;0;0;9;0;712;0;0;0;0
27.01.18;19:25:00;1;434;10912;0;2;0;1490;0;0;0;0;3;0;847;0;0;0;0;4;0;1133;0;0;0;0;5;0;3451;2;0;0;0;0;0;6;0;2416;2;0;0;0;0;0;7;0;1393;0;0;0;0;8;0;1421;0;0;0;0;9;0;712;0;0;0;0
27.01.18;19:20:00;1;462;10876;0;2;0;1490;0;0;0;0;3;0;847;0;0;0;0;4;0;1133;0;0;0;0;5;0;3451;2;0;0;0;0;0;6;0;2416;2;0;0;0;0;0;7;0;1393;0;0;0;0;8;0;1421;0;0;0;0;9;0;712;0;0;0;0
27.01.18;19:15:00;1;391;10840;0;2;0;1490;0;0;0;0;3;0;847;0;0;0;0;4;0;1133;0;0;0;0;5;0;3451;2;0;0;0;0;0;6;0;2416;2;0;0;0;0;0;7;0;1393;0;0;0;0;8;0;1421;0;0;0;0;9;0;712;0;0;0;0
27.01.18;19:10:00;1;593;10807;0;2;0;1490;0;0;0;0;3;0;847;0;0;0;0;4;0;1133;0;0;0;0;5;0;3451;2;0;0;0;0;0;6;0;2416;2;0;0;0;0;0;7;0;1393;0;0;0;0;8;0;1421;0;0;0;0;9;0;712;0;0;0;0
27.01.18;19:05:00;1;391;10745;0;2;0;1490;0;0;0;0;3;0;847;0;0;0;0;4;0;1133;0;0;0;0;5;0;3451;2;0;0;0;0;0;6;0;2416;2;0;0;0;0;0;7;0;1393;0;0;0;0;8;0;1421;0;0;0;0;9;0;712;0;0;0;0
27.01.18;19:00:00;1;389;10713;0;2;0;1490;0;0;0;0;3;0;847;0;0;0;0;4;0;1133;0;0;0;0;5;0;3451;2;0;0;0;0;0;6;0;2416;2;0;0;0;0;0;7;0;1393;0;0;0;0;8;0;1421;0;0;0;0;9;0;712;0;0;0;0
27.01.18;18:55:00;1;390;10680;0;2;0;1490;0;0;0;0;3;0;847;0;0;0;0;4;0;1133;0;0;0;0;5;0;3451;2;0;0;0;0;0;6;0;2416;2;0;0;0;0;0;7;0;1393;0;0;0;0;8;0;1421;0;0;0;0;9;0;712;0;0;0;0
27.01.18;18:50:00;1;429;10647;0;2;0;1490;0;0;0;0;3;0;847;0;0;0;0;4;0;1133;0;0;0;0;5;0;3451;2;0;0;0;0;0;6;0;2416;2;0;0;0;0;0;7;0;1393;0;0;0;0;8;0;1421;0;0;0;0;9;0;712;0;0;0;0
27.01.18;18:45:00;1;485;10610;0;2;0;1490;0;0;0;0;3;0;847;0;0;0;0;4;0;1133;0;0;0;0;5;0;3451;2;0;0;0;0;0;6;0;2416;2;0;0;0;0;0;7;0;1393;0;0;0;0;8;0;1421;0;0;0;0;9;0;712;0;0;0;0
27.01.18;18:40:00;1;512;10569;0;2;0;1490;0;0;0;0;3;0;847;0;0;0;0;4;0;1133;0;0;0;0;5;0;3451;2;0;0;0;0;0;6;0;2416;2;0;0;0;0;0;7;0;1393;0;0;0;0;8;0;1421;0;0;0;0;9;0;712;0;0;0;0
27.01.18;18:35:00;1;625;10525;0;2;0;1490;0;0;0;0;3;0;847;0;0;0;0;4;0;1133;0;0;0;0;5;0;3451;2;0;0;0;0;0;6;0;2416;2;0;0;0;0;0;7;0;1393;0;0;0;0;8;0;1421;0;0;0;0;9;0;712;0;0;0;0
27.01.18;18:30:00;1;654;10472;0;2;0;1490;0;0;0;0;3;0;847;0;0;0;0;4;0;1133;0;0;0;0;5;0;3451;2;0;0;0;0;0;6;0;2416;2;0;0;0;0;0;7;0;1393;0;0;0;0;8;0;1421;0;0;0;0;9;0;712;0;0;0;0
27.01.18;18:25:00;1;1205;10418;0;2;0;1490;0;0;0;0;3;0;847;0;0;0;0;4;0;1133;0;0;0;0;5;0;3451;2;0;0;0;0;0;6;0;2416;2;0;0;0;0;0;7;0;1393;0;0;0;0;8;0;1421;0;0;0;0;9;0;712;0;0;0;0
27.01.18;18:20:00;1;1421;10291;0;2;0;1490;0;0;0;0;3;0;847;0;0;0;0;4;0;1133;0;0;0;0;5;0;3451;2;0;0;0;0;0;6;0;2416;2;0;0;0;0;0;7;0;1393;0;0;0;0;8;0;1421;0;0;0;0;9;0;712;0;0;0;0
27.01.18;18:15:00;1;630;10196;0;2;0;1490;0;0;0;0;3;0;847;0;0;0;0;4;0;1133;0;0;0;0;5;0;3451;2;0;0;0;0;0;6;0;2416;2;0;0;0;0;0;7;0;1393;0;0;0;0;8;0;1421;0;0;0;0;9;0;712;0;0;0;0
27.01.18;18:10:00;1;637;10144;0;2;0;1490;0;0;0;0;3;0;847;0;0;0;0;4;0;1133;0;0;0;0;5;0;3451;2;0;0;0;0;0;6;0;2416;2;0;0;0;0;0;7;0;1393;0;0;0;0;8;0;1421;0;0;0;0;9;0;712;0;0;0;0
27.01.18;18:05:00;1;627;10090;0;2;0;1490;0;0;0;0;3;0;847;0;0;0;0;4;0;1133;0;0;0;0;5;0;3451;2;0;0;0;0;0;6;0;2416;2;0;0;0;0;0;7;0;1393;0;0;0;0;8;0;1421;0;0;0;0;9;0;712;0;0;0;0
27.01.18;18:00:00;1;489;10044;0;2;0;1490;0;0;0;0;3;0;847;0;0;0;0;4;0;1133;0;0;0;0;5;0;3451;2;0;0;0;0;0;6;0;2416;2;0;0;0;0;0;7;0;1393;0;0;0;0;8;0;1421;0;0;0;0;9;0;712;0;0;0;0
27.01.18;17:55:00;1;478;10003;0;2;0;1490;0;0;0;0;3;0;847;0;0;0;0;4;0;1133;0;0;0;0;5;0;3451;2;0;0;0;0;0;6;0;2416;2;0;0;0;0;0;7;0;1393;0;0;0;0;8;0;1421;0;0;0;0;9;0;712;0;0;0;0
27.01.18;17:50:00;1;473;9963;0;2;0;1490;0;0;0;0;3;0;847;0;0;0;0;4;0;1133;0;0;0;0;5;0;3451;2;0;0;0;0;0;6;0;2416;2;0;0;0;0;0;7;0;1393;0;0;0;0;8;0;1421;0;0;0;0;9;0;712;0;0;0;0
27.01.18;17:45:00;1;517;9924;0;2;0;1490;0;0;0;0;3;0;847;0;0;0;0;4;0;1133;0;0;0;0;5;0;3451;2;0;0;0;0;0;6;0;2416;2;0;0;0;0;0;7;0;1393;0;0;0;0;8;0;1421;0;0;0;0;9;0;712;0;0;0;0
27.01.18;17:40:00;1;581;9880;0;2;0;1490;0;0;0;0;3;0;847;0;0;0;0;4;0;1133;0;0;0;0;5;0;3451;2;0;0;0;0;0;6;0;2416;2;0;0;0;0;0;7;0;1393;0;0;0;0;8;0;1421;0;0;0;0;9;0;712;0;0;0;0
27.01.18;17:35:00;1;833;9831;0;2;0;1490;0;0;0;0;3;0;847;0;0;0;0;4;0;1133;0;0;0;0;5;0;3451;2;0;0;0;0;0;6;0;2416;2;0;0;0;0;0;7;0;1393;0;0;0;0;8;0;1421;0;0;0;0;9;0;712;0;0;0;0
27.01.18;17:30:00;1;795;9749;0;2;0;1490;0;0;0;0;3;0;847;0;0;0;0;4;0;1133;0;0;0;0;5;0;3451;2;0;0;0;0;0;6;0;2416;2;0;0;0;0;0;7;0;1393;0;0;0;0;8;0;1421;0;0;0;0;9;0;712;0;0;0;0
27.01.18;17:25:00;1;535;9688;0;2;0;1490;0;0;0;0;3;0;847;0;0;0;0;4;0;1133;0;0;0;0;5;0;3451;2;0;0;0;0;0;6;0;2416;2;0;0;0;0;0;7;0;1393;0;0;0;0;8;0;1421;0;0;0;0;9;0;712;0;0;0;0
27.01.18;17:20:00;1;710;9643;0;2;0;1490;0;0;0;0;3;0;847;0;0;0;0;4;0;1133;0;0;0;0;5;0;3451;2;0;0;0;0;0;6;0;2416;2;0;0;0;0;0;7;0;1393;0;0;0;0;8;0;1421;0;0;0;0;9;0;712;0;0;0;0
27.01.18;17:15:00;1;951;9573;0;2;0;1490;0;0;0;0;3;0;847;0;0;0;0;4;0;1133;0;0;0;0;5;0;3451;2;0;0;0;0;0;6;0;2416;2;0;0;0;0;0;7;0;1393;0;0;0;0;8;0;1421;0;0;0;0;9;0;712;0;0;0;0
27.01.18;17:10:00;1;734;9491;0;2;0;1490;0;0;0;0;3;0;847;0;0;186;9;4;0;1133;0;0;0;0;5;0;3451;2;0;0;0;0;0;6;0;2416;2;0;0;0;0;0;7;0;1393;0;0;0;0;8;0;1421;0;0;0;0;9;0;712;0;0;0;0
27.01.18;17:05:00;1;733;9430;0;2;0;1490;2;0;262;10;3;0;847;6;0;294;13;4;0;1133;0;0;0;0;5;0;3451;2;0;0;0;0;0;6;0;2416;2;0;0;0;0;0;7;0;1393;0;0;0;0;8;0;1421;0;0;0;0;9;0;712;0;0;0;0
27.01.18;17:00:00;1;736;9368;0;2;0;1490;6;0;295;10;3;0;847;6;0;329;14;4;0;1133;0;0;61;5;5;0;3451;2;0;0;0;0;0;6;0;2416;2;0;0;0;0;0;7;0;1393;0;0;0;0;8;0;1421;0;0;0;0;9;0;712;0;0;0;0
27.01.18;16:55:00;1;694;9305;0;2;0;1490;6;0;313;10;3;0;847;6;0;372;14;4;0;1133;1;0;89;7;5;0;3451;2;119;128;108;106;15;6;0;2416;2;0;0;0;0;2;7;0;1393;0;0;0;0;8;0;1421;0;0;0;0;9;0;712;0;0;0;0
27.01.18;16:50:00;1;788;9247;0;2;0;1490;6;0;334;10;3;0;847;6;0;408;14;4;0;1133;1;0;109;8;5;0;3451;1;0;0;321;331;19;6;0;2416;1;6;2;149;301;17;7;0;1393;0;0;0;0;8;0;1421;0;0;0;0;9;0;712;0;0;85;2
27.01.18;16:45:00;1;805;9180;0;2;0;1490;6;0;353;10;3;0;847;4;0;423;14;4;0;1133;1;0;131;8;5;0;3451;26;0;0;381;382;20;6;0;2416;23;7;3;451;236;19;7;0;1393;0;0;206;9;8;0;1421;0;0;210;9;9;0;712;6;0;282;8
27.01.18;16:40:00;1;760;9113;0;2;0;1490;6;0;370;10;3;0;847;3;3;417;14;4;0;1133;1;0;157;8;5;0;3451;23;0;1;402;436;20;6;0;2416;23;5;3;555;180;19;7;0;1393;6;0;295;12;8;0;1421;6;0;301;12;9;0;712;6;0;317;8
27.01.18;16:35:00;1;761;9049;0;2;0;1490;6;0;383;11;3;0;847;6;2;458;14;4;0;1133;1;0;182;8;5;7;3451;26;0;1;406;602;20;6;0;2416;23;6;4;340;448;20;7;0;1393;6;0;345;12;8;0;1421;6;0;352;12;9;0;712;6;0;374;8
27.01.18;16:30:00;1;768;8985;0;2;0;1490;6;0;392;11;3;0;847;6;2;477;14;4;0;1133;1;0;201;9;5;8;3450;23;2;5;414;652;20;6;0;2416;23;5;2;182;572;20;7;0;1393;6;0;376;13;8;0;1421;6;0;382;12;9;0;712;6;0;417;9
27.01.18;16:25:00;1;831;8920;0;2;0;1490;6;0;405;11;3;2;847;6;7;458;14;4;0;1133;1;0;207;9;5;12;3449;26;2;1;423;671;21;6;0;2416;23;4;2;438;586;21;7;0;1393;6;0;408;13;8;0;1421;6;0;421;12;9;1;712;3;1;429;9
27.01.18;16:20:00;1;1046;8844;0;2;1;1490;6;5;406;11;3;1;846;6;4;507;14;4;0;1133;3;0;219;9;5;81;3448;4;22;22;375;593;22;6;51;2415;4;23;30;473;448;22;7;2;1393;6;1;443;13;8;0;1421;6;3;431;12;9;0;711;6;1;490;9
27.01.18;16:15:00;1;664;8758;0;2;2;1490;6;7;406;11;3;0;846;6;0;532;14;4;0;1133;3;0;234;9;5;91;3441;4;30;27;375;593;22;6;61;2411;4;27;29;473;448;22;7;1;1393;6;2;450;13;8;1;1421;6;2;454;13;9;1;711;6;2;490;9
27.01.18;16:10:00;1;716;8702;0;2;2;1490;4;7;413;11;3;2;846;3;10;497;14;4;0;1133;3;0;224;9;5;110;3433;4;43;40;375;593;22;6;73;2406;4;36;40;473;448;22;7;0;1393;6;4;471;13;8;1;1421;6;4;473;13;9;2;711;6;3;518;9
27.01.18;16:05:00;1;976;8642;0;2;11;1489;3;21;401;11;3;4;846;6;16;488;14;4;2;1133;3;2;209;10;5;129;3424;4;50;49;375;593;22;6;83;2400;4;37;42;473;448;22;7;2;1393;4;5;467;13;8;2;1420;4;5;470;13;9;2;711;6;4;520;9
27.01.18;16:00:00;1;534;8554;0;2;17;1488;6;25;405;12;3;3;846;6;8;532;14;4;8;1133;3;8;199;10;5;142;3413;4;57;51;375;593;22;6;93;2393;4;37;44;473;448;22;7;1;1392;6;7;475;14;8;5;1420;3;14;454;13;9;0;711;6;3;528;9
27.01.18;15:55:00;1;435;8509;0;2;69;1487;4;96;371;12;3;6;845;6;13;538;14;4;29;1132;3;30;197;10;5;196;3401;4;96;79;375;593;22;6;133;2385;4;55;61;473;448;22;7;17;1392;6;28;453;14;8;20;1420;6;28;457;13;9;6;711;4;13;503;9
27.01.18;15:50:00;1;702;8475;0;2;107;1481;4;134;367;12;3;49;845;6;79;470;15;4;60;1130;3;62;197;10;5;269;3384;4;127;114;375;593;22;6;177;2373;4;85;84;473;448;22;7;84;1391;4;116;444;14;8;84;1418;4;119;453;14;9;9;710;6;13;561;9
27.01.18;15:45:00;1;186;8424;0;2;117;1472;4;145;373;12;3;63;841;4;99;447;15;4;68;1125;3;70;198;10;5;282;3361;4;136;117;375;593;22;6;186;2358;4;94;93;473;448;22;7;75;1384;4;111;474;14;8;77;1411;4;111;470;14;9;9;710;6;14;559;9
27.01.18;15:40:00;1;186;8409;0;2;105;1463;4;133;380;12;3;30;836;6;48;528;15;4;60;1119;3;63;198;10;5;275;3338;4;135;114;375;593;22;6;183;2342;4;75;74;473;448;22;7;70;1378;4;97;458;14;8;75;1405;4;109;442;14;9;12;709;6;20;531;9
27.01.18;15:35:00;1;748;8393;0;2;171;1454;4;200;392;12;3;98;834;4;138;508;15;4;126;1114;3;131;225;10;5;388;3315;4;195;171;375;593;22;6;260;2327;4;139;144;473;448;22;7;143;1372;4;172;443;14;8;129;1399;4;167;468;13;9;63;708;6;83;510;10
27.01.18;15:30:00;1;186;8345;0;2;148;1440;4;176;380;12;3;85;826;4;123;487;15;4;92;1104;5;96;214;10;5;339;3283;4;173;145;382;593;22;6;227;2305;4;111;119;473;448;22;7;124;1360;4;168;454;14;8;134;1388;4;172;460;13;9;72;703;4;99;469;10
27.01.18;15:25:00;1;186;8329;0;2;207;1427;4;240;380;12;3;122;819;4;161;504;15;4;165;1096;5;171;232;10;5;488;3254;4;247;209;416;645;22;6;308;2286;4;148;148;473;448;22;7;169;1350;4;212;464;14;8;173;1377;4;210;477;13;9;97;697;4;122;508;10
27.01.18;15:20:00;1;467;8314;0;2;198;1410;4;229;381;12;3;119;808;4;156;507;15;4;156;1082;5;162;227;10;5;455;3212;4;231;197;396;595;22;6;319;2260;4;191;199;495;497;22;7;212;1336;4;248;448;14;8;209;1362;4;250;454;13;9;115;689;4;144;508;10
27.01.18;15:15:00;1;194;8266;0;2;246;1393;4;280;388;12;3;150;798;4;188;493;15;4;192;1069;5;199;230;10;5;532;3174;4;275;231;404;624;22;6;401;2233;4;192;198;572;563;22;7;255;1318;4;293;467;14;8;261;1345;4;290;480;13;9;140;679;4;164;521;10
27.01.18;15:10:00;1;217;8250;0;2;223;1373;4;255;385;12;3;134;786;4;173;507;15;4;178;1053;5;185;231;10;5;522;3128;4;262;225;417;651;22;6;394;2199;4;195;207;578;563;22;7;199;1297;4;235;458;14;8;210;1323;4;241;456;13;9;114;668;4;139;508;10
27.01.18;15:05:00;1;464;8232;0;2;223;1354;4;256;387;12;3;133;774;4;171;516;15;4;180;1038;5;187;229;10;5;518;3085;4;267;224;409;615;22;6;390;2166;4;188;197;576;562;22;7;228;1280;4;262;447;14;8;228;1305;4;263;453;13;9;119;658;4;147;514;10
27.01.18;15:00:00;1;230;8184;0;2;248;1335;4;281;392;12;3;149;763;4;187;516;15;4;199;1023;5;207;233;10;5;546;3042;4;283;233;408;639;22;6;411;2133;4;197;209;570;563;22;7;230;1260;4;271;451;14;8;240;1286;4;275;456;13;9;128;648;4;157;516;10
27.01.18;14:55:00;1;231;8164;0;2;301;1314;4;333;397;12;3;182;751;4;223;515;15;4;243;1007;5;253;235;10;5;653;2997;4;330;283;405;655;22;6;487;2099;4;245;251;595;567;22;7;310;1241;4;357;475;14;8;315;1266;4;357;469;13;9;170;637;4;200;518;10
27.01.18;14:50:00;1;491;8144;0;2;299;1289;4;331;389;12;3;184;735;4;226;512;15;4;243;986;5;253;235;10;5;627;2939;4;320;271;408;643;22;6;417;2056;4;187;189;492;468;22;7;293;1215;4;336;465;14;8;304;1239;4;340;485;13;9;165;623;4;197;520;10
27.01.18;14:45:00;1;256;8093;0;2;241;1263;4;273;394;12;3;147;720;4;184;511;15;4;188;965;5;195;235;10;5;514;2888;4;265;223;411;606;22;6;331;2022;4;167;168;473;448;22;7;240;1189;4;268;458;14;8;224;1212;4;263;486;13;9;126;608;4;155;521;10
27.01.18;14:40:00;1;256;8072;0;2;209;1243;4;240;391;12;3;124;707;4;163;511;15;4;158;949;5;165;230;10;5;461;2846;4;234;188;412;593;22;6;300;1995;4;157;159;473;448;22;7;213;1169;4;248;448;14;8;211;1194;4;249;457;13;9;113;598;4;143;510;10
27.01.18;14:35:00;1;561;8051;0;2;208;1226;4;240;384;12;3;124;697;4;161;508;15;4;154;936;5;161;228;10;5;452;2808;4;230;191;401;593;22;6;297;1970;4;161;155;473;448;22;7;197;1151;4;239;478;14;8;204;1176;4;242;476;13;9;113;588;4;140;503;10
27.01.18;14:30:00;1;253;8000;0;2;181;1209;4;213;389;12;3;107;687;4;145;507;15;4;129;923;5;135;226;10;5;380;2770;4;192;174;375;593;22;6;258;1946;4;111;114;473;448;22;7;159;1135;4;183;476;14;8;149;1159;4;192;448;13;9;84;579;4;110;501;9
27.01.18;14:25:00;1;243;7979;0;2;134;1193;4;161;377;12;3;65;678;4;93;480;15;4;90;913;5;94;209;10;5;312;2738;4;159;134;375;593;22;6;216;1924;4;96;98;473;448;22;7;121;1122;4;162;470;14;8;134;1147;4;162;475;13;9;63;572;4;81;482;9
27.01.18;14:20:00;1;431;7960;0;2;87;1182;4;113;374;12;3;7;672;6;12;549;15;4;42;905;3;44;197;10;5;227;2713;4;112;101;375;593;22;6;157;1907;4;84;86;473;448;21;7;71;1112;4;102;413;14;8;75;1135;4;102;430;13;9;7;567;6;10;560;9
27.01.18;14:15:00;1;220;7913;0;2;132;1175;4;164;386;12;3;66;672;6;95;512;15;4;79;901;3;83;209;10;5;308;2694;4;154;129;375;593;22;6;204;1894;4;92;96;473;448;21;7;100;1106;4;142;455;14;8;90;1129;4;132;478;13;9;10;566;6;15;564;9
27.01.18;14:10:00;1;310;7895;0;2;133;1164;4;161;378;12;3;75;667;4;112;488;15;4;82;895;3;85;202;10;5;301;2668;4;153;128;375;593;22;6;201;1877;4;100;104;473;448;21;7;94;1098;4;131;440;14;8;93;1121;4;130;452;13;9;0;565;6;0;591;9
27.01.18;14:05:00;1;796;7869;0;2;160;1153;4;189;376;12;3;90;661;4;130;513;15;4;114;888;5;118;220;10;5;356;2643;4;185;153;375;593;22;6;241;1860;4;121;124;473;448;21;7;134;1090;4;170;470;14;8;138;1113;4;171;470;13;9;30;565;4;38;542;10
27.01.18;14:00:00;1;540;7798;0;2;182;1140;4;214;384;13;3;103;653;4;144;512;15;4;132;879;3;138;225;10;5;411;2613;4;205;173;400;593;22;6;265;1840;4;149;145;473;448;21;7;161;1079;4;199;443;14;8;172;1102;4;201;457;13;9;80;563;6;101;503;10
27.01.18;13:55:00;1;515;7753;0;2;213;1125;4;245;387;13;3;125;645;4;165;525;15;4;166;868;5;173;229;10;5;466;2579;4;237;196;411;593;21;6;300;1817;4;149;145;473;448;21;7;205;1066;4;235;446;14;8;206;1088;4;235;437;13;9;109;556;4;136;503;10
27.01.18;13:50:00;1;870;7710;0;2;196;1107;4;227;381;13;3;111;634;4;151;524;15;4;147;854;5;153;230;10;5;430;2540;4;215;191;389;593;21;6;286;1792;4;133;131;473;448;21;7;192;1049;4;231;474;14;8;209;1071;4;236;456;13;9;110;547;4;136;508;10
27.01.18;13:45:00;1;514;7638;0;2;180;1091;4;213;384;13;3;107;625;4;145;499;15;4;131;842;5;136;227;10;5;409;2504;4;207;174;392;593;21;6;271;1768;4;144;146;473;448;21;7;191;1033;4;218;472;14;8;183;1054;4;218;476;13;9;103;538;4;127;507;10